GFSNW_850_dewp_081.txt.gz
Dewpoint
5 6 8 8 6 -2 -0 1 3 3 2 3 2 1 3 1 1 1 1 1 2 1 0 3 3 4 2 1 -0 2 4 3 6 5 4 3 4 4 3 3 4 2 2 1
4 6 8 7 4 -4 1 2 2 3 2 3 2 1 2 1 2 1 2 1 -0 1 2 3 3 3 2 0 0 1 1 3 5 5 3 2 5 4 4 3 2 2 2 -0
5 6 8 7 3 -4 -2 2 2 2 2 2 3 3 2 3 1 -0 -1 -1 -1 -0 3 1 3 3 2 2 2 0 0 2 2 2 2 3 4 3 3 3 2 3 3 1
6 6 8 7 -0 -5 1 2 1 1 2 1 1 2 1 2 2 -0 -1 -1 -0 0 1 2 3 2 3 2 1 0 2 3 -1 1 2 3 3 3 3 3 3 4 2 2
5 6 7 4 -3 -5 1 1 1 1 0 0 1 2 2 2 1 0 -0 0 -0 -0 3 2 3 2 2 3 1 1 1 3 1 2 1 2 3 2 2 3 2 3 2 3
5 6 7 1 -4 -5 -1 -3 -2 -1 -0 0 1 1 1 1 1 1 2 1 0 3 2 2 0 -1 -1 -0 2 2 2 1 1 2 0 0 1 1 2 2 1 2 4 1
5 6 6 -1 -4 -5 -8 -6 -4 -3 -2 -1 0 -0 0 2 1 2 3 1 2 2 1 0 -0 -1 -1 -1 -1 1 3 4 3 3 1 3 -1 -4 -2 1 1 0 0 -1
6 6 6 -1 -2 -6 -9 -8 -6 -4 -3 -3 -2 -0 -0 0 1 2 2 1 1 2 1 1 1 1 1 0 -1 -0 3 3 5 4 2 1 -1 -3 -2 -3 -2 -3 -2 -1
6 6 4 -1 -4 -7 -8 -8 -6 -4 -3 -4 -4 -2 -1 -0 -0 0 0 1 2 3 2 2 2 3 1 3 2 -1 0 2 3 4 3 4 -1 -2 -3 -4 2 -1 1 1
5 6 1 -2 -6 -7 -8 -8 -6 -5 -5 -4 -4 -4 -3 -3 -2 -0 -1 1 1 1 1 2 2 1 -0 3 3 2 2 2 3 2 4 2 -2 -3 -3 -1 -1 -1 -1 -1
5 2 -2 -4 -6 -8 -8 -8 -5 -7 -4 -4 -4 -5 -5 -5 -3 -1 -1 0 1 1 1 2 2 2 0 -2 -0 1 1 1 2 2 3 3 -3 -3 -1 -1 -0 -0 -0 -0
4 1 -3 -6 -6 -7 -7 -8 -5 -7 -6 -4 -4 -4 -4 -4 -4 -2 -1 -1 0 1 -0 -0 1 1 -1 -1 -0 -2 1 -1 1 0 1 -3 -3 -2 -1 -1 -0 -0 -0 -0
3 -1 -5 -7 -7 -8 -8 -6 -6 -8 -5 -4 -6 -5 -6 -4 -4 -2 -1 -1 -0 -0 0 0 0 1 0 -0 -1 -1 -2 -2 -1 -1 -2 -3 -1 -2 -2 -2 -2 -3 -2 -2
1 -4 -7 -6 -7 -7 -8 -7 -8 -8 -7 -4 -3 -3 -6 -6 -6 -4 -3 -3 -1 -0 -1 -1 -1 1 0 0 0 0 -1 -2 -1 -1 -1 -1 -2 -2 -3 -3 -3 -3 -2 -1
-2 -6 -5 -6 -5 -6 -7 -8 -8 -6 -5 -3 -3 -4 -4 -6 -5 -4 -3 -2 -2 -3 -3 -2 -1 -1 -1 -1 -2 -0 -1 -1 -0 -0 -3 -2 -2 -2 -2 -1 -1 -1 -1 -0
-1 -4 -3 -6 -7 -9 -8 -6 -6 -5 -8 -3 -3 -3 -3 -4 -5 -5 -5 -4 -4 -3 -3 -3 -4 -4 -3 -2 -1 -4 -3 -3 -3 -4 -4 -2 -1 -1 -1 -2 -0 0 -0 -2
-1 -4 -4 -5 -8 -7 -7 -6 -5 -5 -5 -4 -2 -3 -3 -3 -3 -3 -4 -5 -3 -3 -3 -3 -3 -3 -5 -3 -2 -5 -6 -6 -4 -2 -1 -1 -1 -1 -1 -0 0 1 0 1
-3 -4 -5 -6 -6 -7 -7 -4 -3 -4 -4 -3 -3 -2 -3 -2 -2 -3 -3 -3 -4 -4 -3 -4 -4 -3 -4 -2 -4 -6 -6 -5 -2 -1 -1 -1 -1 -1 -1 -0 0 0 1 1
-4 -5 -5 -5 -6 -7 -7 -5 -6 -4 -5 -2 -3 -2 -1 -2 -1 -2 -2 -3 -2 -3 -3 -3 -4 -3 -2 -4 -5 -5 -6 -4 -1 -1 -1 -1 -0 -1 -1 -1 -1 -1 -1 -1
-5 -6 -6 -6 -6 -7 -6 -6 -7 -6 -4 -1 -2 -3 -2 -2 -3 -3 -3 -3 -2 -1 -3 -3 -3 -3 -4 -4 -5 -7 -6 -1 -1 -2 -1 -1 -1 -2 -1 -2 -2 -1 -1 -1
-6 -6 -3 -4 -5 -5 -6 -5 -3 -3 -3 -2 -1 -3 -2 -2 -3 -2 -3 -2 -2 -1 -2 -2 -3 -3 -3 -4 -4 -5 -3 -2 -2 -2 -1 -1 -1 -1 -2 -2 -2 -2 -2 -2
-7 -7 -4 -3 -3 -4 -3 -3 -3 -1 -1 -2 -2 -2 -2 -1 -3 -3 -3 -3 -3 -2 -2 -2 -3 -4 -3 -3 -2 -1 -2 -2 -1 -1 -1 -1 -1 -1 -1 -1 -2 -2 -3 -3
-7 -5 -2 -3 -3 -3 -4 -3 -2 -1 -2 -2 -2 -3 -2 -2 -3 -3 -3 -2 -3 -2 -2 -2 -3 -2 -2 -2 -2 -2 -1 -1 -1 -1 -1 -2 -3 -2 -2 -2 -2 -2 -3 -3
-5 -5 -3 -5 -8 -5 -3 -2 -1 -2 -2 -2 -3 -2 -3 -2 -3 -3 -4 -3 -2 -1 -2 -3 -3 -1 -1 -2 -2 -2 -2 -3 -3 -3 -4 -4 -5 -6 -4 -3 -2 -2 -3 -4
-7 -5 -8 -6 -5 -3 -1 -1 -2 -2 -2 -3 -3 -3 -3 -4 -3 -3 -2 -1 -2 -2 -4 -4 -1 -1 -2 -2 -2 -5 -6 -4 -4 -5 -5 -6 -8 -9 -11 -6 -3 -3 -3 -3
-8 -5 -7 -4 -4 -3 -1 -1 -1 -2 -4 -6 -5 -4 -5 -4 -4 -4 -5 -4 -4 -5 -5 -0 -1 -1 -2 -2 -3 -5 -6 -5 -5 -5 -7 -9 -11 -11 -9 -8 -6 -3 -3 -3
-4 -5 -5 -3 -4 -2 -1 -1 -2 -3 -6 -3 -4 -5 -5 -5 -5 -4 -4 -5 -6 -1 -1 -2 -6 -5 -3 -3 -4 -6 -7 -7 -6 -7 -9 -12 -12 -9 -9 -9 -8 -5 -3 -3

GFSNW_850_dewp_084.txt.gz
Dewpoint
-0 2 1 4 4 5 1 1 3 3 1 2 2 2 0 2 1 1 1 1 1 -0 1 3 4 4 2 1 -0 2 3 3 4 5 3 3 3 4 2 2 2 1 1 0
1 3 3 4 4 4 -0 3 2 3 2 2 2 -0 2 2 2 1 2 2 0 1 1 3 3 3 2 0 1 1 2 2 5 5 2 1 4 3 3 2 1 1 2 -1
1 3 3 4 5 3 -0 1 2 2 2 2 1 2 3 3 1 1 -0 -1 -1 1 3 1 3 3 2 1 1 0 1 2 1 2 1 2 4 3 4 2 2 3 2 0
1 4 3 4 6 1 -0 1 1 2 2 2 2 2 2 3 2 -0 -1 -1 -0 0 3 2 3 3 3 2 1 0 1 2 -2 1 3 3 3 3 3 3 3 3 1 2
2 4 3 4 5 1 -1 1 1 1 0 0 0 2 2 2 1 0 0 0 -0 0 2 2 3 3 3 2 1 1 1 2 1 2 1 2 2 2 2 2 2 3 2 2
2 4 4 4 3 1 -0 -1 1 -1 0 0 1 2 1 1 1 2 0 -1 2 2 2 1 0 -1 -1 1 2 2 2 1 1 2 0 0 2 0 1 2 2 2 3 1
3 4 4 4 2 2 -1 -3 -0 -2 1 1 1 1 1 1 1 2 2 1 2 2 0 0 -1 -1 -1 -0 -0 1 2 3 2 2 0 3 -1 -4 -2 1 0 0 1 -1
4 3 4 4 1 1 -4 -4 -5 -5 -1 -2 -0 1 1 1 2 2 1 1 1 1 0 0 1 1 1 0 -0 0 2 3 4 3 2 0 0 -3 -3 -2 0 -0 -1 -1
4 3 4 3 0 -1 -5 -5 -5 -5 -3 -4 -3 -1 0 0 1 -0 -0 2 2 2 1 1 2 3 2 3 2 -1 1 1 2 5 3 4 -2 -2 -3 -5 1 0 1 1
5 5 4 3 0 -1 -4 -5 -5 -5 -4 -4 -3 -2 -2 -0 -0 -1 -0 1 1 1 1 2 1 1 -0 3 2 2 2 2 4 3 4 1 -2 -3 -3 -1 -2 -1 -1 -0
3 4 3 2 -0 -3 -4 -6 -5 -7 -4 -3 -4 -4 -4 -3 -1 -1 -1 -0 0 0 0 1 1 1 0 -0 -0 1 2 1 2 2 4 2 -3 -3 -2 -3 -0 -0 -1 -1
4 3 3 1 -2 -4 -5 -6 -5 -7 -5 -3 -4 -4 -4 -3 -3 -0 -0 -1 -0 -0 -1 -1 0 1 -1 -2 2 -2 0 -1 0 0 1 -3 -2 -2 -2 -2 -1 -0 -1 -1
3 3 1 -2 -4 -4 -6 -5 -6 -7 -5 -5 -5 -5 -4 -3 -3 -1 -1 -0 -0 0 -0 -1 -0 1 -1 -0 -1 -0 -2 -2 -1 -1 -2 -2 -1 -1 -2 -2 -2 -2 -2 -2
3 -1 -3 -3 -5 -6 -7 -6 -7 -8 -8 -4 -3 -5 -5 -4 -4 -3 -3 -2 -1 -0 -0 -1 -2 1 -0 0 -1 -1 -2 -2 -1 -1 -1 -2 -2 -2 -3 -3 -2 -2 -2 -2
2 -2 -4 -4 -5 -7 -6 -5 -8 -9 -7 -3 -3 -4 -4 -4 -4 -3 -2 -1 -1 -2 -3 -2 -1 -1 -1 -2 -2 -1 -2 -1 -1 -0 -2 -1 -2 -2 -2 -1 -1 -1 -0 -1
-3 -6 -4 -5 -7 -7 -6 -8 -6 -5 -9 -4 -3 -3 -3 -4 -5 -3 -3 -3 -3 -3 -3 -4 -4 -4 -2 -2 -1 -3 -2 -2 -2 -3 -3 -3 -2 -1 -1 -2 -1 -0 0 0
-4 -6 -6 -5 -6 -6 -6 -6 -5 -7 -4 -5 -3 -4 -3 -3 -4 -5 -5 -5 -4 -5 -4 -3 -3 -4 -4 -3 -2 -4 -5 -5 -5 -4 -2 -1 -1 -1 -1 -1 -0 -0 0 1
-1 -4 -5 -6 -4 -5 -4 -3 -5 -3 -3 -3 -3 -2 -3 -3 -2 -3 -3 -4 -4 -4 -3 -4 -4 -3 -4 -3 -4 -5 -5 -4 -3 -1 -1 -1 -1 -1 -1 -1 -1 -1 -1 -0
-2 -3 -4 -7 -6 -7 -4 -4 -5 -3 -4 -3 -4 -3 -2 -2 -2 -3 -3 -3 -3 -4 -3 -3 -4 -4 -3 -5 -6 -5 -5 -5 -2 -1 -1 -1 -1 -1 -1 -2 -2 -2 -1 -1
-3 -3 -3 -3 -7 -6 -5 -6 -6 -5 -3 -1 -3 -3 -3 -2 -3 -3 -3 -2 -2 -3 -3 -3 -3 -3 -4 -5 -5 -5 -5 -5 -1 -1 -2 -1 -1 -1 -1 -2 -2 -3 -1 -2
-4 -5 -5 -4 -6 -6 -6 -5 -4 -3 -3 -2 -2 -4 -2 -3 -4 -3 -4 -2 -3 -5 -4 -3 -4 -3 -4 -5 -4 -7 -6 -5 -2 -2 -2 -1 -1 -2 -2 -2 -2 -2 -3 -2
-6 -7 -4 -6 -3 -3 -3 -4 -4 -3 -3 -2 -3 -3 -2 -2 -3 -3 -2 -4 -4 -4 -3 -2 -3 -4 -5 -4 -4 -4 -4 -2 -2 -2 -1 -1 -2 -2 -2 -2 -2 -3 -3 -2
-8 -6 -3 -2 -3 -3 -2 -4 -4 -2 -2 -2 -2 -3 -2 -3 -3 -4 -4 -4 -4 -3 -2 -2 -4 -4 -3 -3 -3 -2 -2 -2 -2 -1 -1 -2 -3 -4 -6 -8 -8 -3 -2 -2
-7 -5 -4 -4 -3 -5 -3 -2 -2 -3 -2 -2 -3 -2 -2 -3 -4 -4 -6 -4 -2 -2 -3 -4 -4 -4 -2 -2 -2 -2 -2 -2 -2 -4 -4 -5 -6 -6 -7 -8 -9 -9 -4 -3
-8 -8 -4 -5 -6 -3 -1 -1 -2 -2 -2 -4 -3 -3 -3 -5 -3 -4 -3 -2 -2 -3 -4 -5 -3 -2 -2 -2 -2 -2 -5 -7 -7 -6 -6 -7 -6 -8 -11 -11 -9 -8 -6 -4
-7 -5 -6 -4 -3 -2 -1 -2 -1 -2 -4 -6 -6 -5 -6 -3 -4 -4 -5 -4 -4 -6 -6 -2 -1 -2 -2 -2 -2 -3 -6 -6 -6 -6 -6 -6 -8 -10 -12 -11 -9 -8 -6 -5
-5 -6 -5 -5 -4 -2 -1 -1 -2 -4 -7 -4 -5 -7 -7 -5 -6 -5 -5 -5 -6 -6 -1 -1 -2 -2 -3 -3 -2 -3 -5 -6 -7 -6 -6 -6 -8 -9 -12 -12 -10 -9 -7 -6

GFSNW_850_dewp_090.txt.gz
Dewpoint
-2 -2 -2 -2 -1 -0 -0 0 2 2 2 2 2 2 -1 -1 1 1 1 1 2 2 2 4 4 3 2 1 1 3 1 2 4 5 3 3 3 3 1 2 2 0 0 0
-2 -2 -1 -1 -1 -0 -0 1 2 3 2 2 2 -0 -0 0 2 2 2 2 1 -1 1 4 3 3 2 1 1 3 1 1 4 3 1 1 4 3 1 0 0 1 1 0
-2 -1 -1 -0 0 1 1 1 2 2 2 2 1 1 1 3 1 1 1 0 -0 2 2 2 3 4 2 1 1 1 -0 0 -0 1 1 2 4 4 2 1 1 2 1 -0
-1 -2 -0 0 2 3 0 2 2 2 2 2 0 -0 1 2 2 0 -1 -0 -0 2 3 3 4 3 2 1 1 1 -1 1 -2 1 3 2 2 3 3 1 1 1 0 1
-2 -0 1 3 3 1 1 2 2 2 1 0 1 0 2 1 1 1 0 0 -0 -0 2 2 3 3 2 2 0 1 -0 1 -0 1 0 0 2 2 2 3 3 2 2 2
-0 0 2 3 1 2 3 1 2 1 2 1 1 1 1 0 1 1 -1 -1 1 1 1 -0 0 0 1 0 1 1 1 0 -0 1 -0 -0 0 -0 1 1 1 2 3 1
0 1 3 3 3 2 2 1 0 -1 1 -0 -1 1 1 1 0 2 1 0 0 1 -1 -1 -1 -0 -1 0 1 -0 1 1 1 1 -1 1 -2 -3 -2 0 -0 -0 0 -0
2 3 2 3 3 2 2 1 -1 -1 0 -1 -1 0 1 1 1 0 0 1 1 0 -1 -0 1 0 0 0 0 1 0 1 2 2 1 -1 -1 -2 -3 -1 -1 -0 -0 -2
3 3 3 3 3 2 2 -0 -2 -2 -2 -2 -2 0 1 0 -0 0 2 2 1 0 -1 -0 2 2 1 2 1 0 0 -0 1 1 3 2 -3 -2 -3 -5 -1 0 0 1
3 3 3 3 3 2 2 -3 -5 -4 -3 -3 -2 -1 0 -0 -1 -0 1 2 1 -0 -0 1 1 1 -0 2 2 2 4 4 2 2 2 1 -3 -3 -4 -1 -2 -0 -1 -1
3 3 3 3 3 2 0 -4 -6 -4 -3 -3 -3 -3 -1 -1 -0 0 0 0 0 -1 0 0 0 -0 -0 0 -0 1 2 2 2 3 2 2 -3 -3 -3 -4 -1 -0 -1 -1
3 3 3 3 2 2 -3 -5 -4 -2 -2 -3 -2 -2 -2 -1 -1 0 0 -1 -1 -1 -1 -2 -1 1 -2 -2 1 -2 1 -0 1 0 0 -3 -2 -2 -2 -1 -1 -0 -1 -1
3 3 3 3 2 -0 -4 -5 -5 -4 -3 -4 -3 -3 -2 -1 -0 -0 -1 -1 -0 -1 -2 -2 -1 -0 -2 -1 -1 -1 -2 -3 -1 -1 -2 -2 -1 -1 -1 -1 -1 -2 -2 -2
3 3 3 3 2 -2 -5 -6 -6 -5 -5 -4 -4 -3 -3 -2 -1 -1 -1 -2 -1 -1 -1 -2 -2 0 -1 -2 -3 -2 -2 -2 -2 -2 -2 -2 -2 -2 -2 -2 -2 -2 -2 -2
3 3 3 3 2 0 -3 -6 -7 -8 -9 -4 -4 -4 -3 -2 -3 -3 -2 -1 -1 -1 -2 -2 -1 -1 -2 -3 -3 -2 -2 -2 -1 -1 -3 -2 -2 -2 -2 -2 -2 -2 -2 -3
3 2 2 2 1 -1 -3 -5 -7 -8 -7 -7 -4 -4 -4 -3 -2 -1 -1 -1 -2 -3 -3 -4 -3 -3 -2 -2 -1 -4 -2 -2 -3 -3 -2 -2 -2 -2 -2 -2 -2 -3 -2 -2
2 1 -1 -3 -2 -3 -4 -5 -5 -8 -8 -8 -4 -4 -4 -4 -4 -3 -4 -4 -5 -5 -4 -4 -4 -4 -3 -3 -2 -6 -3 -2 -2 -2 -2 -2 -2 -2 -2 -2 -2 -2 -2 -1
-1 -2 -4 -4 -3 -4 -3 -3 -5 -4 -5 -6 -5 -4 -4 -4 -5 -5 -6 -6 -6 -5 -4 -4 -4 -4 -5 -4 -5 -5 -4 -3 -3 -3 -3 -4 -3 -2 -2 -2 -2 -2 -2 -2
-3 -4 -4 -4 -5 -4 -4 -3 -3 -4 -5 -4 -5 -4 -4 -3 -3 -3 -4 -4 -4 -4 -4 -4 -5 -5 -3 -6 -7 -6 -4 -4 -4 -3 -2 -2 -2 -2 -1 -1 -1 -2 -2 -2
-4 -4 -4 -6 -6 -4 -4 -3 -3 -4 -2 -4 -3 -4 -2 -3 -3 -3 -4 -3 -4 -5 -4 -3 -3 -3 -6 -7 -7 -8 -5 -5 -5 -2 -1 -1 -2 -2 -1 -2 -2 -2 -2 -2
-4 -5 -4 -5 -3 -4 -5 -4 -4 -3 -2 -3 -4 -3 -2 -3 -4 -3 -4 -5 -6 -5 -4 -4 -4 -4 -5 -5 -6 -7 -5 -5 -5 -3 -2 -2 -2 -2 -2 -2 -4 -5 -6 -5
-3 -3 -5 -4 -4 -4 -6 -5 -4 -3 -3 -3 -4 -3 -4 -3 -4 -3 -3 -5 -6 -4 -4 -4 -3 -5 -6 -4 -6 -6 -6 -5 -5 -4 -2 -2 -2 -2 -3 -4 -6 -7 -8 -9
-1 -3 -4 -3 -4 -6 -6 -4 -5 -5 -3 -3 -3 -2 -2 -3 -4 -3 -5 -6 -5 -4 -3 -3 -5 -6 -5 -4 -5 -5 -5 -5 -6 -4 -3 -2 -2 -3 -4 -6 -7 -7 -9 -10
-1 -1 -2 -4 -6 -5 -5 -4 -4 -5 -3 -3 -2 -3 -3 -4 -4 -5 -6 -5 -3 -3 -3 -5 -7 -6 -4 -4 -5 -6 -6 -6 -3 -2 -2 -3 -4 -5 -6 -7 -8 -8 -10 -12
-1 -2 -3 -4 -5 -4 -4 -3 -3 -3 -3 -3 -3 -4 -4 -5 -5 -5 -3 -2 -3 -4 -5 -6 -7 -6 -4 -4 -5 -5 -3 -2 -3 -3 -6 -7 -7 -6 -7 -7 -7 -8 -8 -10
-2 -6 -7 -4 -5 -3 -2 -2 -2 -3 -4 -6 -6 -6 -6 -3 -4 -4 -5 -6 -6 -6 -6 -6 -4 -5 -3 -4 -4 -3 -2 -2 -5 -6 -6 -7 -7 -6 -6 -6 -7 -6 -7 -8
-2 -6 -6 -6 -4 -4 -2 -2 -3 -3 -5 -4 -7 -10 -10 -5 -7 -5 -6 -6 -6 -8 -7 -2 -4 -4 -3 -3 -3 -2 -3 -3 -3 -5 -7 -7 -7 -6 -6 -6 -7 -6 -7 -7

GFSNW_850_dewp_093.txt.gz
Dewpoint
0 -1 -2 -3 -1 -1 -0 -0 1 1 1 2 1 2 1 -1 1 1 1 1 1 2 2 3 3 3 2 1 1 2 1 2 6 5 2 2 3 3 -0 3 3 0 1 1
-1 -3 -2 -2 -1 -0 -0 0 0 1 1 2 3 2 1 0 1 1 1 2 1 -0 2 4 3 2 2 1 1 2 0 1 4 2 1 1 3 3 0 -0 0 2 2 1
-3 -2 -2 -1 -1 -0 -0 1 1 2 2 2 1 3 2 0 1 1 1 1 0 1 2 2 3 3 2 1 2 1 -1 -0 -0 1 0 2 4 4 1 0 1 2 -0 -0
-2 -2 -0 0 0 1 0 0 1 2 2 2 2 1 0 1 3 1 -1 -0 1 1 3 3 4 3 2 1 1 0 -1 1 -2 1 1 2 2 3 3 1 0 1 -0 0
-2 -1 1 2 3 1 1 2 2 2 1 2 2 2 1 2 1 1 0 1 0 0 2 1 3 3 2 2 -0 1 -1 1 -0 1 -0 -0 1 2 2 3 2 2 2 2
1 1 2 2 1 0 1 2 1 -0 2 2 2 0 1 1 0 1 -1 -1 0 1 0 0 1 1 0 0 0 1 0 0 -0 1 -0 -1 0 -0 1 2 1 1 3 1
2 2 3 2 1 1 0 1 -0 -0 2 2 1 -0 1 -1 0 1 0 -0 0 0 0 -0 -0 -0 -0 0 0 -0 0 0 0 1 -1 0 -2 -3 -2 -0 -0 -0 0 -0
2 3 2 2 1 2 1 1 -1 -1 0 -0 -1 0 1 1 0 0 0 1 1 -1 -1 0 1 1 1 0 0 0 -1 0 2 2 1 -2 -2 -2 -2 -1 -1 0 0 -2
3 3 2 2 2 2 1 1 -1 -1 -1 -1 -2 0 1 0 -0 0 2 2 1 -0 -1 -0 2 3 1 2 2 -0 -0 -1 0 1 2 1 -3 -3 -3 -5 -2 -0 0 0
2 3 2 3 2 2 0 -5 -4 -3 -2 -2 -1 -0 0 -0 -1 -0 1 1 1 -1 -1 1 1 1 -1 2 2 4 3 3 1 1 1 -0 -3 -3 -4 -2 -3 -0 -0 -1
3 3 3 3 2 2 2 -4 -6 -3 -2 -2 -2 -2 -1 -0 -0 0 1 0 0 -1 1 -0 -0 -1 -0 -0 -1 0 1 2 2 2 1 1 -3 -3 -3 -4 -2 -0 -1 -1
3 3 3 3 2 1 -0 -5 -3 -2 -2 -2 -2 -2 -1 -1 -1 1 0 -1 -1 -1 -1 -2 -1 0 -2 -2 1 -2 1 -1 1 -0 -1 -4 -3 -3 -3 -2 -1 -1 -1 -1
3 3 3 2 2 1 0 -5 -3 -3 -2 -3 -3 -2 -1 -1 0 -0 -1 -1 -1 -2 -2 -2 -2 -0 -3 -1 -1 -1 -2 -3 -1 -1 -3 -3 -2 -2 -1 -1 -1 -1 -1 -1
3 3 3 2 2 -3 -6 -5 -5 -4 -4 -4 -3 -3 -2 -1 -1 -1 -1 -1 -1 -2 -1 -2 -2 -0 -2 -2 -3 -2 -2 -3 -2 -2 -3 -2 -2 -2 -2 -2 -2 -2 -2 -2
3 3 3 3 2 -2 -6 -7 -7 -7 -8 -4 -4 -3 -3 -2 -2 -2 -1 -1 -1 -2 -2 -2 -1 -2 -2 -3 -3 -2 -3 -2 -1 -1 -3 -3 -3 -2 -2 -2 -2 -2 -2 -2
3 3 3 3 2 -1 -5 -6 -7 -7 -6 -5 -5 -4 -3 -2 -2 -1 -1 -1 -2 -3 -3 -3 -3 -3 -3 -2 -1 -4 -2 -3 -3 -4 -3 -2 -2 -2 -2 -2 -2 -2 -3 -3
3 3 3 2 1 0 -3 -6 -6 -8 -8 -8 -5 -5 -4 -3 -3 -3 -3 -3 -4 -4 -4 -4 -4 -3 -2 -3 -2 -6 -4 -2 -3 -3 -2 -2 -2 -2 -2 -2 -2 -3 -2 -2
2 1 -2 -2 -2 -3 -6 -4 -6 -5 -6 -8 -6 -4 -4 -4 -5 -4 -5 -5 -5 -5 -4 -4 -4 -4 -5 -3 -5 -5 -4 -2 -2 -2 -2 -3 -2 -2 -3 -3 -2 -2 -2 -2
-0 -2 -3 -4 -3 -5 -4 -4 -4 -3 -5 -5 -5 -4 -4 -4 -4 -4 -5 -5 -5 -5 -5 -5 -4 -4 -3 -5 -7 -6 -4 -3 -3 -2 -2 -3 -3 -3 -2 -2 -2 -2 -2 -3
-2 -4 -6 -5 -5 -4 -3 -3 -3 -3 -2 -4 -4 -4 -3 -3 -4 -4 -4 -4 -4 -5 -5 -4 -3 -4 -7 -8 -8 -8 -5 -3 -3 -2 -2 -2 -2 -2 -2 -2 -2 -2 -3 -5
-4 -5 -5 -4 -4 -3 -4 -4 -4 -4 -3 -3 -4 -4 -3 -3 -4 -3 -4 -4 -5 -5 -4 -4 -4 -4 -5 -6 -8 -8 -6 -4 -5 -4 -5 -4 -2 -3 -2 -2 -3 -4 -7 -9
-4 -4 -4 -4 -3 -4 -6 -6 -5 -4 -4 -3 -4 -3 -3 -3 -4 -3 -3 -5 -6 -4 -4 -4 -4 -6 -7 -6 -7 -8 -6 -4 -5 -4 -3 -3 -3 -3 -3 -3 -4 -6 -8 -9
-4 -3 -4 -3 -4 -4 -6 -5 -5 -5 -3 -3 -3 -3 -3 -3 -4 -3 -5 -6 -4 -4 -4 -4 -5 -7 -7 -5 -6 -6 -6 -5 -5 -4 -5 -3 -3 -3 -3 -5 -6 -7 -8 -9
-0 -1 -1 -4 -5 -5 -5 -5 -3 -5 -3 -3 -3 -3 -3 -4 -4 -4 -6 -5 -3 -3 -3 -5 -8 -7 -6 -5 -6 -6 -6 -5 -5 -6 -3 -3 -3 -4 -6 -7 -7 -7 -8 -8
-1 -1 -2 -3 -5 -5 -4 -4 -4 -3 -3 -3 -4 -4 -4 -5 -5 -5 -4 -3 -2 -4 -6 -6 -8 -7 -5 -5 -5 -5 -5 -5 -5 -3 -3 -4 -6 -7 -7 -7 -6 -6 -6 -7
-1 -2 -6 -7 -6 -5 -3 -2 -2 -3 -3 -5 -6 -5 -7 -5 -4 -4 -5 -5 -6 -6 -6 -7 -6 -6 -4 -5 -6 -6 -5 -3 -3 -3 -6 -6 -6 -7 -7 -7 -6 -5 -5 -6
-2 -4 -5 -7 -6 -5 -4 -3 -3 -3 -5 -4 -7 -8 -8 -5 -4 -5 -6 -6 -7 -9 -7 -5 -6 -4 -5 -5 -5 -3 -3 -3 -3 -5 -4 -8 -9 -9 -8 -7 -7 -6 -7 -8

GFSNW_850_dewp_096.txt.gz
Dewpoint
-1 -2 -2 -2 -2 -1 -1 0 1 0 1 1 1 3 2 1 0 -0 1 0 1 0 2 1 2 2 3 2 1 3 1 3 6 5 2 2 3 2 -0 3 2 1 1 1
-2 -2 -1 -2 -1 -1 -1 0 1 1 1 3 3 2 2 1 1 1 2 2 1 0 2 3 3 3 2 1 1 2 0 3 6 4 2 1 3 2 1 -0 2 4 2 2
-2 -2 -2 -2 0 -0 -1 0 0 1 1 2 1 3 3 2 0 1 1 1 -0 1 3 2 4 3 2 1 2 1 -1 1 2 3 3 3 5 3 2 2 5 0 1 1
1 0 0 0 0 0 -0 0 0 1 3 2 2 2 3 0 2 1 -0 0 1 1 3 3 4 3 2 1 1 0 -0 5 2 1 1 2 2 3 2 4 1 2 0 0
1 2 3 2 2 1 0 0 2 2 2 2 2 2 3 0 1 2 1 1 1 0 1 1 3 2 2 2 0 1 -0 4 1 2 -0 0 2 2 3 2 1 1 1 1
2 2 2 1 0 1 1 1 1 1 2 2 2 1 -0 -0 1 0 -0 -0 0 1 1 0 1 1 0 0 0 1 1 2 3 4 0 -0 1 0 1 2 2 1 1 1
2 1 2 1 1 1 -1 -0 -0 1 3 2 0 -1 -1 0 0 1 0 0 0 0 0 -0 -0 0 0 0 1 -1 1 2 2 4 0 3 -1 -3 -2 -0 -0 0 0 -0
2 1 1 1 1 1 -1 -0 -0 -0 1 1 0 -0 -1 0 0 1 1 2 1 -1 -1 1 2 2 1 1 1 0 -1 0 3 3 2 -1 -1 -1 -1 -1 -0 0 -0 -2
2 1 1 0 1 1 1 -0 -1 -2 -1 -1 -2 -0 1 1 1 2 2 1 -0 -1 -1 -0 3 2 2 3 3 0 -1 -1 0 2 3 1 -2 -3 -3 -4 -2 -0 -1 -1
2 2 2 1 1 1 -1 -2 -2 -3 -2 -2 -1 0 0 -0 0 2 2 1 1 -1 -0 1 1 1 -1 3 3 3 1 1 2 1 2 -1 -3 -3 -4 -1 -2 0 0 0
2 2 2 1 1 1 -0 -6 -5 -2 -2 -2 -1 -1 -0 -0 0 1 1 1 0 0 2 1 0 -0 0 0 -0 1 0 1 2 1 2 1 -3 -3 -3 -4 -0 0 -0 -0
1 3 2 1 1 1 0 -3 -2 -1 -1 -2 -2 -1 -1 -1 -1 0 0 -0 0 0 1 -1 -0 -0 -1 -0 -0 -1 1 -1 -0 0 -2 -4 -3 -3 -4 -2 -0 -0 -0 -1
2 3 3 2 1 1 1 -3 -2 -2 -1 -2 -2 -1 -1 -1 0 -0 -1 -1 -1 -2 -3 -0 0 0 -2 -0 -1 -0 -1 -3 -1 -1 -2 -3 -2 -3 -2 -2 -1 -1 -1 -1
3 2 1 2 2 -4 -3 -4 -3 -2 -3 -1 -2 -2 -2 -1 -0 -1 -1 -1 -1 -2 -1 -0 0 -0 -2 -1 -3 -1 -2 -2 -1 -1 -3 -2 -2 -2 -2 -1 -1 -1 -1 -2
2 3 3 2 2 -1 -7 -6 -5 -7 -7 -2 -3 -2 -2 -2 -2 -1 -1 -1 -2 -2 -1 -1 -0 -1 -1 -2 -2 -1 -3 -2 -2 -3 -3 -4 -3 -3 -2 -2 -2 -2 -2 -2
3 3 2 2 1 -2 -5 -7 -8 -8 -5 -4 -1 -3 -3 -2 -2 -1 -1 -1 -2 -3 -1 -2 -2 -2 -2 -0 -0 -3 -3 -3 -3 -4 -4 -3 -3 -3 -2 -2 -2 -2 -2 -2
3 3 3 3 2 1 -1 -6 -5 -7 -8 -7 -3 -3 -4 -3 -2 -2 -3 -2 -3 -4 -3 -3 -3 -2 -1 -1 -1 -6 -5 -3 -3 -3 -3 -2 -2 -2 -2 -2 -2 -2 -3 -3
3 2 2 2 2 0 -3 -4 -5 -7 -6 -8 -3 -3 -4 -4 -4 -3 -4 -5 -4 -4 -3 -4 -4 -3 -4 -2 -4 -4 -6 -3 -3 -3 -3 -3 -3 -2 -2 -2 -2 -3 -2 -2
2 1 -2 -4 -4 -3 -5 -4 -5 -5 -4 -5 -4 -2 -2 -4 -4 -5 -5 -5 -3 -5 -4 -4 -4 -4 -2 -3 -5 -5 -6 -3 -2 -2 -2 -3 -3 -2 -2 -3 -3 -2 -2 -3
-1 -3 -5 -5 -5 -6 -4 -3 -4 -4 -3 -5 -4 -5 -3 -4 -3 -3 -3 -3 -4 -2 -4 -4 -3 -3 -6 -7 -8 -8 -7 -5 -3 -2 -2 -2 -3 -3 -3 -3 -2 -2 -3 -4
-4 -5 -5 -4 -6 -4 -4 -4 -3 -4 -2 -3 -4 -3 -3 -4 -3 -3 -4 -2 -3 -1 -3 -3 -3 -3 -5 -8 -10 -9 -9 -5 -4 -3 -3 -3 -5 -4 -3 -2 -2 -2 -4 -7
-3 -4 -4 -4 -4 -4 -4 -3 -4 -3 -2 -3 -3 -3 -3 -4 -4 -3 -3 -3 -4 -2 -4 -2 -2 -4 -8 -7 -8 -9 -9 -5 -4 -3 -4 -5 -3 -3 -3 -3 -3 -5 -6 -8
-4 -3 -3 -3 -3 -2 -2 -3 -2 -2 -3 -3 -3 -2 -4 -4 -4 -3 -4 -2 -2 -4 -2 -3 -4 -8 -8 -7 -7 -8 -8 -4 -4 -4 -3 -4 -3 -3 -3 -3 -5 -5 -7 -8
-1 -1 -1 -1 -2 -3 -3 -3 -2 -4 -4 -3 -3 -2 -3 -3 -3 -3 -2 -4 -4 -2 -2 -3 -7 -8 -9 -6 -7 -8 -7 -4 -4 -4 -4 -5 -3 -3 -4 -6 -6 -6 -7 -7
-0 -1 0 -1 -4 -6 -6 -5 -5 -4 -4 -3 -4 -3 -4 -3 -3 -4 -3 -3 -2 -3 -4 -4 -9 -9 -8 -6 -6 -7 -6 -5 -5 -5 -5 -3 -3 -5 -7 -7 -7 -7 -6 -6
-1 -2 -3 -5 -5 -4 -3 -3 -4 -3 -3 -5 -5 -3 -3 -3 -3 -2 -2 -3 -4 -3 -3 -7 -8 -8 -6 -6 -6 -6 -6 -5 -5 -5 -3 -4 -6 -6 -7 -8 -8 -7 -6 -6
-2 -3 -2 -5 -6 -5 -5 -4 -4 -4 -4 -2 -4 -4 -4 -4 -3 -3 -4 -3 -3 -8 -9 -7 -7 -7 -5 -6 -6 -5 -5 -5 -3 -3 -5 -5 -7 -10 -11 -10 -9 -9 -10 -10